Tracking 26218 objects as of 27-Sep-2022
HD Live streaming from Space Station
objects crossing your sky now

EUTE KONNECT VHTS

Track EUTE KONNECT VHTS now!
EUTE KONNECT VHTS is classified as:


NORAD ID: 53765
Int'l Code: 2022-110A
Perigee: 2,364.5 km
Apogee: 64,424.3 km
Inclination: 2.9 °
Period: 1,315.3 minutes
Semi major axis: 39765 km
RCS: Unknown
Launch date: September 7, 2022
Source: European Telecommunications Satellite Organization (EUTE)
Launch site: FRENCH GUIANA (FRGUI)
aabbcc
Your satellite tracking list
Your tracking list is empty




NASA's NSSDC Master Catalog

Two Line Element Set (TLE):
1 53765U 22110A   22270.05944900 -.00000132  00000-0  00000+0 0  9992
2 53765   2.8559 141.6135 7803250 181.5913 148.3740  1.09482663   221
Source of the keplerian elements: AFSPC